NOAA 16 DEB

Satellite information

Favourite Embed

Satellite Type and Status

DEBRISIN ORBIT

Key statistics

Satellite NOAA 16 DEB at a glance.

Uptime

9214

Days in orbit

Revolutions

≈ 14.7

Per day

Orbit

SSO

Sun Synchronous Orbit

Inclination

98.7

Latest

Satellite identification and parameters

Extended collection of information and parameters for NOAA 16 DEB.

Object identification

Identified? True

Debris? True

Object name: NOAA 16 DEB

International designator: 2000-055QH

Object number (NORAD): 42341

Object ID (CCSDS): 42341

Country: UNITED STATES OF AMERICA (US)

Current information (Y/N): Y

RCS size: SMALL

Orbital parameters

Period: 98.014 minutes

Inclination: 98.7205 deg

SMA: 7041.838 km

Apoapsis: 684.331 km

Periapsis: 643.076 km

RAAN: 119.6138 deg

Eccentricy: 0.0029293

Argument of periapsis: 223.2324 deg

Mean anomaly: 136.6581 deg

Mean motion: 14.69175521 rev/day

Mean motion (dot): 0.00038381 rev/day2

B* drag term: 0.0064534257 1/REarth

Two-line elements (TLE)

Creation date: Dec. 12, 2025, 10:14 a.m.

Reference frame: TEME

Reference center: EARTH

Epoch: Dec. 12, 2025, 4:54 a.m. UTC

TLE line 0: 0 NOAA 16 DEB

TLE line 1: 1 42341U 00055QH 25346.20428512 .00038381 00000-0 64534-2 0 9995

TLE line 2: 2 42341 98.7205 119.6138 0029293 223.2324 136.6581 14.69175521513267

Live tracking on map

Real-time ground track for satellite NOAA 16 DEB.

In-orbit conjunctions

A list of the most updated potential collisions computed for object NOAA 16 DEB.

Target Orbit TCA Probability of collision Miss distance Type
CZ-6A DEB LEO 2025-12-02 05:07:45 0.000162479 28.0 (m) DEBRIS
START 1 LEO 2025-03-15 06:10:13 0.0001970093 134.0 (m) PAYLOAD
FUSE 1 LEO 2024-11-25 08:45:11 0.0001279563 361.0 (m) PAYLOAD
CZ-2D DEB SSO 2024-11-11 13:33:01 0.0001244471 87.0 (m) DEBRIS

Associated space launch

The NOAA K, L and M POES satellites begin the fifth generation of improved environmental monitoring in support of NOAA missions. The instrument payload has significant improvements and additions/deletions. The instrument changes have effected the spacecraft subsystems and data formats.

NOAA 16 DEB was lifted into orbit during the mission ‘Titan II SLV | NOAA 16’, on board a Titan II SLV space rocket.

The launch took place on Sept. 21, 2000, 10:22 a.m. from Space Launch Complex 4W.

For more information about the launch, click the button.

Launch to space Titan II SLV | NOAA 16
Titan II SLV | NOAA 16

Agency: N/A

Status: Launch Successful

Launch date: Sept. 21, 2000, 10:22 a.m. UTC

Rocket: Titan II SLV

Launch pad: Space Launch Complex 4W

Location: Vandenberg SFB, CA, USA

...

Latest news about this satellite

There are no fresh news available about this satellite. Check back as we update our databases every day.


Newsletter sign-up

Weekly statistics, charts and insights to help you stay on top of the space industry.